Location: Songkhla
(7.2000°N, 100.6000°E)
Time: 20:00:01
(UTC+07:00)

Cosmos 2237 Rocket - Pass Details

Date: 16 April 2026
Orbit: 833 x 850 km, 71.0° (Epoch: 20 May)

Event Time Altitude Azimuth Distance (km) Brightness Sun altitude
Rises 19:24:49 0° 186° (S) 3,379 5.3 -15.1°
Reaches altitude 10° 19:27:18 10° 182° (S) 2,447 4.5 -15.7°
Maximum altitude 19:32:47 56° 105° (ESE) 993 2.2 -17.0°
Drops below altitude 10° 19:38:17 10° 28° (NNE) 2,455 4.5 -18.4°
Sets 19:40:46 0° 24° (NNE) 3,391 5.2 -19.0°
